METEOR 3M

Satellite information

Favourite Embed

Satellite Type and Status

PAYLOADIN ORBIT

Key statistics

Satellite METEOR 3M at a glance.

Uptime

8610

Days in orbit

Revolutions

≈ 13.7

Per day

Orbit

SSO

Sun Synchronous Orbit

Inclination

99.8

Latest

Satellite identification and parameters

Extended collection of information and parameters for METEOR 3M.

Object identification

Identified? True

Debris? False

Object name: METEOR 3M

International designator: 2001-056A

Object number (NORAD): 27001

Object ID (CCSDS): 27001

Country: COMMONWEALTH OF INDEPENDENT STATES (CIS)

Current information (Y/N): Y

RCS size: LARGE

Orbital parameters

Period: 105.185 minutes

Inclination: 99.8115 deg

SMA: 7381.246 km

Apoapsis: 1013.186 km

Periapsis: 993.035 km

RAAN: 2.7434 deg

Eccentricy: 0.001365

Argument of periapsis: 4.4477 deg

Mean anomaly: 62.0325 deg

Mean motion: 13.69015206 rev/day

Mean motion (dot): -0.00000003 rev/day2

B* drag term: 0.000050811 1/REarth

Two-line elements (TLE)

Creation date: July 6, 2025, 6:05 p.m.

Reference frame: TEME

Reference center: EARTH

Epoch: July 6, 2025, 12:27 p.m. UTC

TLE line 0: 0 METEOR 3M

TLE line 1: 1 27001U 01056A 25187.51892954 -.00000003 00000-0 50811-4 0 9991

TLE line 2: 2 27001 99.8115 2.7434 0013650 4.4477 62.0325 13.69015206177585

Live tracking on map

Real-time ground track for satellite METEOR 3M.

In-orbit conjunctions

There are no conjunctions computed for METEOR 3M, at the moment. Check back to stay up to date, as we update our databases every day.

Go to all conjunctions

Associated space launch

Meteor-3M No.1 is the first and so far only of the Meteor-3M series polar-orbit weather satellites.

METEOR 3M was lifted into orbit during the mission ‘Zenit-2 | Meteor-3M No. 1’, on board a Zenit-2 space rocket.

The launch took place on Dec. 10, 2001, 5:18 p.m. from 45/1.

For more information about the launch, click the button.

Launch to space Zenit-2 | Meteor-3M No. 1
Zenit-2 | Meteor-3M No. 1

Agency: N/A

Status: Launch Successful

Launch date: Dec. 10, 2001, 5:18 p.m. UTC

Rocket: Zenit-2

Launch pad: 45/1

Location: Baikonur Cosmodrome, Republic of Kazakhstan

...

Latest news about this satellite

There are no fresh news available about this satellite. Check back as we update our databases every day.


Newsletter sign-up

Weekly statistics, charts and insights to help you stay on top of the space industry.